Weather History for Martinsburg, WV

Change the Weather History Date:

Thursday, February 6, 2014

  Actual Average Record
Temperature  
Mean Temperature 30 °F 32 °F  
Max Temperature 35 °F 41 °F 68 °F (1965)
Min Temperature 25 °F 23 °F -1 °F (1961)
Degree Days  
Heating Degree Days 35 33  
Month to date heating degree days 182 198  
Since 1 July heating degree days 3349 3281  
Cooling Degree Days 0 0  
Month to date cooling degree days 0 0  
Year to date cooling degree days 0 0  
Moisture  
Dew Point 15 °F    
Average Humidity 53    
Maximum Humidity 68    
Minimum Humidity 38    
Precipitation  
Precipitation 0.00 in 0.08 in 1.98 in (2004)
Month to date precipitation 1.88 0.50  
Year to date precipitation 2.92 2.94  
Sea Level Pressure  
Sea Level Pressure 30.30 in    
Wind  
Wind Speed 7 mph (NW)    
Max Wind Speed 20 mph    
Max Gust Speed 26 mph    
Visibility 10 miles    
Events      
T = Trace of Precipitation, MM = Missing Value Source: NWS Daily Summary

Daily Weather History Graph

Daily Weather History Graph

Search for Another Location

Airport:

Trip Planner

Search our weather history database for the weather conditions in past years. The results will help you decide how hot, cold, wet, or windy it might be!

Date:

Astronomy

Feb. 06, 2014 Rise Set
Actual Time 7:14 AM EST 5:38 PM EST
Civil Twilight 6:46 AM EST 6:06 PM EST
Nautical Twilight 6:14 AM EST 6:38 PM EST
Astronomical Twilight 5:43 AM EST 7:09 PM EST
Moon 11:09 AM EST (2/6) 12:28 AM EST (2/6)
Length of Visible Light 11h 20m
Length of Day
10h 24m
Waxing Crescent, 49% of the Moon is Illuminated
Feb 6
Waxing Crescent
Feb 6
First Quarter
Feb 14
Full
Feb 22
Last Quarter
Mar 1
New

Hourly Weather History & Observations

Time (EST) Temp. Windchill Dew Point Humidity Pressure Visibility Wind Dir Wind Speed Gust Speed Precip Events Conditions
1:53 AM 28.9 °F 18.2 °F 16.0 °F 58% 30.23 in 10.0 mi NNW 13.8 mph - N/A   Overcast
2:53 AM 28.0 °F 17.0 °F 15.1 °F 58% 30.24 in 10.0 mi NNW 13.8 mph 19.6 mph N/A   Overcast
3:53 AM 27.0 °F 18.7 °F 15.1 °F 61% 30.25 in 10.0 mi North 8.1 mph - N/A   Overcast
4:53 AM 27.0 °F 19.5 °F 15.1 °F 61% 30.28 in 10.0 mi NNW 6.9 mph - N/A   Mostly Cloudy
5:53 AM 26.1 °F 17.6 °F 15.1 °F 63% 30.29 in 10.0 mi NNW 8.1 mph - N/A   Mostly Cloudy
6:53 AM 25.0 °F 20.7 °F 15.1 °F 66% 30.31 in 10.0 mi North 3.5 mph - N/A   Mostly Cloudy
7:53 AM 25.0 °F - 15.1 °F 66% 30.33 in 10.0 mi Calm Calm - N/A   Partly Cloudy
8:53 AM 27.0 °F - 15.1 °F 61% 30.35 in 10.0 mi Calm Calm - N/A   Partly Cloudy
9:53 AM 28.0 °F 20.8 °F 14.0 °F 56% 30.36 in 10.0 mi NW 6.9 mph - N/A   Clear
10:53 AM 28.9 °F 21.1 °F 14.0 °F 54% 30.37 in 10.0 mi NW 8.1 mph - N/A   Clear
11:53 AM 30.9 °F 24.3 °F 14.0 °F 50% 30.34 in 10.0 mi NW 6.9 mph - N/A   Clear
12:53 PM 32.0 °F 26.4 °F 14.0 °F 48% 30.31 in 10.0 mi WNW 5.8 mph - N/A   Clear
1:53 PM 34.0 °F 28.0 °F 14.0 °F 44% 30.29 in 10.0 mi NW 6.9 mph - N/A   Clear
2:53 PM 35.1 °F 29.3 °F 14.0 °F 42% 30.27 in 10.0 mi WNW 6.9 mph - N/A   Clear
3:53 PM 35.1 °F 30.1 °F 12.9 °F 40% 30.28 in 10.0 mi NW 5.8 mph - N/A   Clear
4:53 PM 34.0 °F 31.0 °F 16.0 °F 48% 30.28 in 10.0 mi WSW 3.5 mph - N/A   Clear
5:53 PM 33.1 °F 30.0 °F 14.0 °F 46% 30.27 in 10.0 mi NNW 3.5 mph - N/A   Clear
6:53 PM 32.0 °F 26.4 °F 14.0 °F 48% 30.28 in 10.0 mi WNW 5.8 mph - N/A   Clear
7:53 PM 32.0 °F 23.0 °F 14.0 °F 48% 30.29 in 10.0 mi WNW 11.5 mph 21.9 mph N/A   Clear
8:53 PM 30.9 °F 22.2 °F 15.1 °F 52% 30.31 in 10.0 mi WNW 10.4 mph - N/A   Clear
9:53 PM 30.0 °F 26.5 °F 15.1 °F 54% 30.32 in 10.0 mi East 3.5 mph - N/A   Clear
10:53 PM 28.9 °F 25.2 °F 15.1 °F 56% 30.33 in 10.0 mi SW 3.5 mph - N/A   Scattered Clouds
11:53 PM 28.0 °F 24.2 °F 15.1 °F 58% 30.30 in 10.0 mi South 3.5 mph - N/A   Clear